Погода Преображение

Погода Преображение : погода сейчас, прогноз погоды и архив. Всё, что Вы хотите узнать о погоде Преображение!

Хотите узнать прогноз погоды Преображение? Тогда Вам сюда: Погода Преображение

Поиск расширенной информации на нашем сайте:

Другие новости

Новости СМИ2

Главная страница сайта

Новости сайта

02.10.2013

Напоминаем, что на нашем новом сайте вы можете получить высокодетализированные прогнозы погоды по пунктам России, СНГ и мира (включающие важные для авиации метеовеличины, такие как направление и скорость ветра, видимость, явления погоды, количество и форма облачности, нижняя и верхняя граница облачности), а также ознакомиться с разнообразными материалами по авиационной метеорологии и подборкой полезных ссылок на эту тему.

Сайт Метеоцентр.Азия посвящён разработке технологий оптимизации авиаметеорологического обслуживания, включая проектирование и перспективное создание нескольких автоматизированных авиаметеорологических систем:
- система выпуска высокодетальных прогностических карт явлений погоды для нижнего воздушного пространства по России и ближнему зарубежью;
- система верификации прогнозов TAF (выпускаемых синоптиками официальных АМСГ РФ и ближнего зарубежья) и AUTOTAF (выпускаемых сайтом Метеоцентр.Азия) - выявление ошибок, онлайн-сопоставление с фактической погодой METAR, автоматическое внесение коррективов в прогнозы при резком отклонении фактической погоды от прогноза, подсчёт оправдываемости прогнозов по элементам и в целом;
- система обработки, анализа и отображения авиаметеорологической информации для применения провайдерами метеорологической информации.

Рекомендуем: Правильная регулировка пластикового окна.

Погода Преображение - сегодня

Время (UTC), дата Ветер
(°,м/с) 
Видим.   Явления Облачность Т
(°С)
Тd
(°С)
f(%) Тe
(°С)
Pmin
(гПа)
dP
(гПа)
Po
(мм)
O2
(г/м3)
Тmin Tmax R s Состояние
почвы
00 23.02.17 030 (СВ) 20000 м    6/0 средняя 
[Ac trans]
-0.7 -7.5 60 1004.8  -0.3  750  304           
03 23.02.17 010 (С) 20000 м    4/3 600 м верхняя 
[Sc|Ci fib]
+1.7 -8.4 47 1004.3  -0.4  749  301           
06 23.02.17 320 (СЗ) 3{13}  20000 м    3/0 600 м верхняя 
[Ci]
-1.3 -14.4 36 -3  1004.4  749  305           
09 23.02.17 170 (Ю) 2{18}  20000 м    ясно 
-5.3 -18 36 -7  1008  3.5  752  310    +1.9       
12 23.02.17 280 (З) 4{17}  20000 м    ясно 
-5.7 -18.8 35 -9  1011.1  3.1  754  312           
15 23.02.17 270 (З) 2{14}  20000 м    ясно 
-6.3 -19 36 -8  1012.1  755  313           
18 23.02.17 280 (З) 20000 м    ясно 
-7.3 -19 39 -9  1012.9  0.8  756  314           
21 23.02.17 070 (В) 20000 м    ясно 
-8.6 -21.5 34 -8  1013.4  0.4  756  316  -8.6      24  равномерный
мокрый или
старый снег
100% 
00 24.02.17 280 (З) 20000 м    ясно 
-5 -19.3 32 -6  1014.7  1.4  757  312  -9.1         
03 24.02.17 270 (З) 4-10{10}  20000 м    8/0 верхняя 
[Ci sp]
-1.5 -16.6 31 -4  1013.8  -0.8  756  308           
06 24.02.17 090 (В) 1{12}  20000 м    ясно 
+0 -18.4 24 +1  1012.4  -1.4  755  306           
09 24.02.17 200 (Ю) 20000 м    ясно 
-3 -11.1 54 -3  1013.3  0.9  756  309    +0.3       
12 24.02.17 250 (З) 20000 м    6/0 верхняя 
[Ci fib]
-4.1 -15.1 42 -5  1014.8  1.4  757  311           
15 24.02.17 280 (З) 20000 м    ясно 
-2.3 -7.3 69 -3  1013.7  -1.1  756  308           
18 24.02.17 тихо ()   20000 м    ясно 
-5 -9.5 71 -5  1013.2  -0.5  756  311           
21 24.02.17 230 (ЮЗ) 20000 м    ясно 
-6.3 -11.3 68 -6  1013.1  -0.2  756  313  -6.4      10  равномерный
мокрый или
старый снег
100% 
00 25.02.17 270 (З) 20000 м    10/0 верхняя 
[Cs]
-1.1 -10.8 48 -3  1012.2  -0.7  755  307  -6.6         
03 25.02.17 280 (З) 5-11{15}  20000 м    8/0 верхняя 
[Cs]
+0.7 -9.8 45 -2  1010.9  -1.3  754  304           
06 25.02.17 270 (З) 3{12}  20000 м    5/0 верхняя 
[Cs]
+2.2 -14.3 28 +1  1009.7  -1.1  753  302           
09 25.02.17 300 (СЗ) 1{13}  20000 м    3/0 верхняя 
[Cs]
-0.9 -17.8 26 1012.4  2.6  755  307    +2.3       
12 25.02.17 270 (З) 20000 м    ясно 
-2.3 -17.8 29 -3  1015.5  758  309           
15 25.02.17 260 (З) 20000 м    ясно 
-5.3 -16.5 41 -5  1016.8  1.3  758  313           
18 25.02.17 260 (З) 20000 м    ясно 
-5.9 -17.7 39 -7  1017.1  0.3  759  314           
21 25.02.17 010 (С) 20000 м    ясно 
-7 -16 49 -11  1018.6  1.5  760  316  -9.2      равномерный
мокрый или
старый снег
100% 
00 26.02.17 140 (ЮВ) 20000 м    ясно 
-5.7 -19.2 34 -7  1021.4  2.7  762  315           
Время (UTC), дата Ветер
(°,м/с) 
Видим.   Явления Облачность Т
(°С)
Тd
(°С)
f(%) Тe
(°С)
Pmin
(гПа)
dP
(гПа)
Po
(мм)
O2
(г/м3)
Тmin Tmax R s Состояние
почвы

Для получения пояснительной информации подведите курсор к названию столбца.

ПОГОДА Преображение - архив

Всё, что Вы хотите узнать о погоде Преображение - удобно и подробно!

Выберите нужную дату (начиная с 1 января 2015* года) и нажмите кнопку "Найти".
Будут отображены архивные сводки погоды по пункту Преображение, начиная с указанной даты.


Отображать данные в формате CSV (для использования в таблицах Excel)


Внимание! Наш архив погоды предназначен исключительно для личного некоммерческого использования в познавательных целях. Если Вам необходимы официальные справки о состоянии погоды (для производственных, юридических, коммерческих и т.п. целей), обращайтесь в органы Росгидромета.

*Примечание: данная дата относится к архиву по метеостанциям СССР (Россия, СНГ, Балтия).
Архив по метеостанциям Зарубежной Европы и Азии (кроме Китая) хранится 10 дней, по другим регионам земного шара (Китай, Африка, Америка, Австралия, Океания) - 1 день.

Преображение - район местоположения метеостанции


Название, широта, долгота, высота метеостанции:
Преображение 42.9°ш. 133.9°д. 43 м над ур. моря [Российская Федерация]

Дополнительная информация

В oтличие oт бoльшинства пoгoдных сайтoв мы публикуем пoдрoбную метеoинфoрмацию в детальнoм прoфессиoнальнoм фoрмате.

Характеристики температуры и влажнoсти вoздуха измеряются на высoте 2 м в тени вдали oт зданий и деревьев.
Скoрoсть ветра измеряется на высoте 10 м (на урoвне рoста челoвека скoрoсть ветра ниже в 1.5-2 раза). Если метеoстанция нахoдится в гoрoде или в лесу, тo скoрoсть ветра занижена на 2-4 м/с пo сравнению с oткрытым местoм. Скoрoсть ветра над акватoриями крупных рек и oзёр, а также на вершинах хoлмoв на 2-5 м/с выше, чем в oбычных услoвиях.
Атмoсфернoе давление в разных тoчках местнoсти мoжет значительнo oтличаться oт давления на метеoстанции, в зависимoсти oт услoвий рельефа (при пoдъёме на 10 м давление пoнижается примернo на 1 мм рт.ст.).